Back to catalog

YUNYAO-1 20

AliveScienceVLEO
NORAD 58760·PAYLOAD·🇨🇳 China

Launched Jan 11, 2024 from Yellow Sea Launch Area

Loading…

Next Passes (next 24 hours)

TLE

FreshSource: Space-Track

Epoch: Sep 14, 2026, 14:48 UTC

1 58760U 24009C   26257.61692242  .00007176  00000-0  34726-3 0  9991
2 58760  49.9781  87.6438 0003643 291.7541  68.3024 15.19536112148287

Track YUNYAO-1 20 in real time with AllMySat

Download on the App Store